Weather History for Charles City, IA

Change the Weather History Date:

Tuesday, September 16, 2014

  Actual Average Record
Temperature  
Mean Temperature 52 °F -  
Max Temperature 66 °F 71 °F 93 °F (1955)
Min Temperature 37 °F 48 °F 35 °F (1984)
Degree Days  
Heating Degree Days 14    
Growing Degree Days 2 (Base 50)    
Moisture  
Dew Point 42 °F    
Average Humidity 73    
Maximum Humidity 100    
Minimum Humidity 40    
Precipitation  
Precipitation 0.00 in - - ()
Sea Level Pressure  
Sea Level Pressure 30.17 in    
Wind  
Wind Speed 2 mph (SSW)    
Max Wind Speed 9 mph    
Max Gust Speed 15 mph    
Visibility 9 miles    
Events      
Averages and records for this station are not official NWS values.
T = Trace of Precipitation, MM = Missing Value Source: NWS Daily Summary

Daily Weather History Graph

Daily Weather History Graph

Search for Another Location

Airport:

Trip Planner

Search our weather history database for the weather conditions in past years. The results will help you decide how hot, cold, wet, or windy it might be!

Date:

Astronomy

Sep. 16, 2014 Rise Set
Actual Time 6:51 AM CDT 7:18 PM CDT
Civil Twilight 6:22 AM CDT 7:47 PM CDT
Nautical Twilight 5:49 AM CDT 8:20 PM CDT
Astronomical Twilight 5:14 AM CDT 8:55 PM CDT
Moon No Moon Rise 2:49 PM CDT (9/16)
Length of Visible Light 13h 24m
Length of Day
12h 27m
Last Quarter, 44% of the Moon is Illuminated
Sep 16
Last Quarter
Sep 24
New
Oct 1
First Quarter
Oct 8
Full
Oct 15
Last Quarter

Hourly Weather History & Observations

Time (CDT) Temp. Windchill Dew Point Humidity Pressure Visibility Wind Dir Wind Speed Gust Speed Precip Events Conditions
12:15 AM 42.8 °F - 41.0 °F 93% 30.25 in 10.0 mi Calm Calm - N/A   Clear
12:35 AM 41.0 °F - 41.0 °F 100% 30.25 in 10.0 mi Calm Calm - N/A   Clear
12:55 AM 41.0 °F - 39.2 °F 93% 30.25 in 10.0 mi Calm Calm - N/A   Clear
1:15 AM 41.0 °F - 39.2 °F 93% 30.25 in 10.0 mi Calm Calm - N/A   Clear
1:35 AM 41.0 °F - 39.2 °F 93% 30.25 in 9.0 mi Calm Calm - N/A   Clear
1:55 AM 41.0 °F - 39.2 °F 93% 30.25 in 10.0 mi Calm Calm - N/A   Clear
2:15 AM 41.0 °F - 39.2 °F 93% 30.25 in 10.0 mi Calm Calm - N/A   Clear
2:35 AM 39.2 °F - 39.2 °F 100% 30.25 in 9.0 mi Calm Calm - N/A   Clear
2:55 AM 39.2 °F 37.0 °F 37.4 °F 93% 30.25 in 8.0 mi West 3.5 mph - N/A   Clear
3:15 AM 39.2 °F - 37.4 °F 93% 30.25 in 7.0 mi Calm Calm - N/A   Clear
3:35 AM 39.2 °F - 37.4 °F 93% 30.25 in 1.0 mi Calm Calm - N/A   Clear
3:55 AM 39.2 °F - 37.4 °F 93% 30.24 in 0.8 mi Calm Calm - N/A   Mist
4:15 AM 39.2 °F 37.0 °F 37.4 °F 93% 30.24 in 1.2 mi West 3.5 mph - N/A   Clear
4:35 AM 39.2 °F 37.0 °F 37.4 °F 93% 30.24 in 7.0 mi West 3.5 mph - N/A   Clear
4:55 AM 37.4 °F - 37.4 °F 100% 30.24 in 7.0 mi Calm Calm - N/A   Clear
5:15 AM 37.4 °F - 37.4 °F 100% 30.24 in 10.0 mi Calm Calm - N/A   Clear
5:35 AM 37.4 °F - 37.4 °F 100% 30.24 in 7.0 mi Calm Calm - N/A   Clear
5:55 AM 37.4 °F - 35.6 °F 93% 30.24 in 2.0 mi Calm Calm - N/A   Clear
6:15 AM 37.4 °F - 37.4 °F 100% 30.24 in 9.0 mi Calm Calm - N/A   Clear
6:35 AM 37.4 °F - 37.4 °F 100% 30.24 in 4.0 mi Calm Calm - N/A   Clear
6:55 AM 37.4 °F - 37.4 °F 100% 30.24 in 0.8 mi Calm Calm - N/A   Mist
7:15 AM 37.4 °F - 37.4 °F 100% 30.24 in 4.0 mi Calm Calm - N/A   Clear
7:35 AM 39.2 °F - 39.2 °F 100% 30.24 in 10.0 mi Calm Calm - N/A   Clear
7:55 AM 41.0 °F - 41.0 °F 100% 30.24 in 9.0 mi Calm Calm - N/A   Clear
8:15 AM 44.6 °F - 42.8 °F 93% 30.23 in 8.0 mi Calm Calm - N/A   Clear
8:35 AM 46.4 °F - 44.6 °F 93% 30.23 in 10.0 mi Calm Calm - N/A   Clear
8:55 AM 48.2 °F - 42.8 °F 82% 30.23 in 10.0 mi Calm Calm - N/A   Clear
9:15 AM 50.0 °F - 42.8 °F 76% 30.23 in 10.0 mi SW 4.6 mph - N/A   Clear
9:35 AM 53.6 °F - 46.4 °F 77% 30.24 in 10.0 mi WSW 6.9 mph - N/A   Clear
9:50 AM 53.6 °F - 46.4 °F 77% 30.24 in 10.0 mi SSW 5.8 mph - N/A   Clear
10:15 AM 55.4 °F - 44.6 °F 67% 30.23 in 10.0 mi WSW 6.9 mph - N/A   Clear
10:30 AM 57.2 °F - 44.6 °F 63% 30.23 in 10.0 mi WSW 8.1 mph - N/A   Clear
10:55 AM 59.0 °F - 42.8 °F 55% 30.22 in 10.0 mi SSW 8.1 mph - N/A   Clear
11:35 AM 60.8 °F - 41.0 °F 48% 30.21 in 10.0 mi SSW 6.9 mph - N/A   Clear
11:55 AM 60.8 °F - 41.0 °F 48% 30.20 in 10.0 mi Variable 6.9 mph 13.8 mph N/A   Clear
12:15 PM 60.8 °F - 41.0 °F 48% 30.19 in 10.0 mi Variable 5.8 mph 15.0 mph N/A   Clear
12:40 PM 62.6 °F - 41.0 °F 45% 30.19 in 10.0 mi Variable 4.6 mph 12.7 mph N/A   Clear
12:55 PM 62.6 °F - 41.0 °F 45% 30.18 in 10.0 mi WSW 9.2 mph - N/A   Clear
1:15 PM 62.6 °F - 41.0 °F 45% 30.17 in 10.0 mi Variable 6.9 mph 12.7 mph N/A   Clear
1:35 PM 64.4 °F - 42.8 °F 45% 30.16 in 10.0 mi Variable 6.9 mph 13.8 mph N/A   Clear
1:55 PM 64.4 °F - 41.0 °F 42% 30.16 in 10.0 mi WSW 8.1 mph - N/A   Clear
2:15 PM 64.4 °F - 41.0 °F 42% 30.15 in 10.0 mi Calm Calm 13.8 mph N/A   Clear
2:35 PM 66.2 °F - 42.8 °F 43% 30.14 in 10.0 mi Variable 4.6 mph 13.8 mph N/A   Clear
3:15 PM 66.2 °F - 42.8 °F 43% 30.12 in 10.0 mi Variable 5.8 mph - N/A   Clear
3:35 PM 66.2 °F - 41.0 °F 40% 30.12 in 10.0 mi SW 8.1 mph 13.8 mph N/A   Clear
3:55 PM 66.2 °F - 42.8 °F 43% 30.11 in 10.0 mi SSW 9.2 mph - N/A   Clear
4:15 PM 66.2 °F - 41.0 °F 40% 30.10 in 10.0 mi Variable 4.6 mph 12.7 mph N/A   Clear
4:35 PM 66.2 °F - 41.0 °F 40% 30.10 in 10.0 mi Variable 4.6 mph - N/A   Clear
4:55 PM 66.2 °F - 41.0 °F 40% 30.09 in 10.0 mi SSW 5.8 mph 11.5 mph N/A   Clear
5:15 PM 66.2 °F - 41.0 °F 40% 30.09 in 10.0 mi SW 4.6 mph - N/A   Clear
5:35 PM 66.2 °F - 42.8 °F 43% 30.09 in 10.0 mi WSW 8.1 mph - N/A   Clear
5:55 PM 66.2 °F - 42.8 °F 43% 30.08 in 10.0 mi WSW 6.9 mph - N/A   Clear
6:15 PM 64.4 °F - 41.0 °F 42% 30.08 in 10.0 mi SW 4.6 mph - N/A   Clear
6:35 PM 64.4 °F - 42.8 °F 45% 30.07 in 10.0 mi SSW 3.5 mph - N/A   Clear
6:55 PM 60.8 °F - 46.4 °F 59% 30.07 in 10.0 mi South 3.5 mph - N/A   Clear
7:15 PM 59.0 °F - 46.4 °F 63% 30.06 in 10.0 mi SSE 3.5 mph - N/A   Clear
7:35 PM 55.4 °F - 46.4 °F 72% 30.06 in 10.0 mi South 5.8 mph - N/A   Clear
7:55 PM 55.4 °F - 46.4 °F 72% 30.06 in 10.0 mi SSE 3.5 mph - N/A   Clear
8:15 PM 55.4 °F - 46.4 °F 72% 30.07 in 10.0 mi SSE 4.6 mph - N/A   Clear
8:35 PM 53.6 °F - 46.4 °F 77% 30.07 in 10.0 mi SSE 4.6 mph - N/A   Clear
8:55 PM 51.8 °F - 46.4 °F 82% 30.07 in 10.0 mi SSE 4.6 mph - N/A   Clear
9:15 PM 51.8 °F - 46.4 °F 82% 30.07 in 10.0 mi SSE 5.8 mph - N/A   Clear
9:35 PM 51.8 °F - 46.4 °F 82% 30.07 in 10.0 mi SSE 4.6 mph - N/A   Clear
9:55 PM 51.8 °F - 44.6 °F 76% 30.07 in 10.0 mi SSE 5.8 mph - N/A   Clear
10:15 PM 51.8 °F - 46.4 °F 82% 30.07 in 10.0 mi South 5.8 mph - N/A   Clear
10:35 PM 51.8 °F - 46.4 °F 82% 30.06 in 10.0 mi SSE 5.8 mph - N/A   Clear
10:55 PM 51.8 °F - 44.6 °F 76% 30.06 in 10.0 mi SSE 5.8 mph - N/A   Clear
11:15 PM 50.0 °F - 44.6 °F 82% 30.06 in 10.0 mi South 5.8 mph - N/A   Clear
11:35 PM 50.0 °F - 44.6 °F 82% 30.06 in 10.0 mi South 6.9 mph - N/A   Clear
11:55 PM 50.0 °F - 44.6 °F 82% 30.05 in 10.0 mi SSE 4.6 mph - N/A   Clear